Regional Weather Roundup
Issued by NWS Wakefield, VA

Home | Current Version | Previous Version | Text Only | Print | Product List | Glossary Off
Versions: 1 2 3 4 5 6 7 8 9 10 11 12 13 14 15 16 17 18 19 20 21 22 23 24 25 26 27 28 29 30 31 32 33 34 35 36 37 38 39 40 41 42 43 44 45 46 47 48 49 50

000
ASUS41 KAKQ 312110
RWRAKQ

REGIONAL WEATHER ROUNDUP
NATIONAL WEATHER SERVICE WAKEFIELD VA
500 PM EDT SUN AUG 31 2014

Note: "fair" indicates few or no clouds below 12,000 feet with no
significant weather and/or obstructions to visibility. * = Denotes
station may not report precipitation (e.g., rain,snow,etc.),
thunder or fog.

VAZ042-051-052>054-056-312200-
NORTHERN VIRGINIA

CITY           SKY/WX    TMP DP  RH WIND       PRES   REMARKS
WASH NATIONAL  PTSUNNY   93  68  43 SW17G24   29.98F HX  97
DULLES         PTSUNNY   88  70  55 SW9       29.99F
FORT BELVOIR   MOSUNNY   90  71  53 VRB6      29.99F HX  96
QUANTICO       PTSUNNY   90  68  48 SW8       29.99F
FREDERICKSBRG* SUNNY     92  70  47 SW13      29.98F HX  98
STAFFORD*      SUNNY     89  69  51 SW7G18    30.03F
WARRENTON      PTSUNNY   90  76  62 S8G16     29.99S HX 101
CULPEPER*      MOSUNNY  N/A N/A N/A SW12      29.99S
MANASSAS*      MOSUNNY   90  73  58 S10       29.98  HX  98
LEESBURG*      CLOUDY    82  72  69 N6        30.02R
WINCHESTER     PTSUNNY   79  70  73 SW8       30.03R
$$

VAZ048-049-060>072-079>083-312200-
CENTRAL AND SOUTH CENTRAL VIRGINIA...AND NORTH CENTRAL NORTH CAROLINA

CITY           SKY/WX    TMP DP  RH WIND       PRES   REMARKS
RICHMOND       MOSUNNY   93  70  46 SW10      30.03F HX  99
CHESTERFIELD*  CLEAR     90  66  45 S14       30.05F
PETERSBURG*    MOSUNNY   89  69  50 SW9       30.05F
HANOVER        MOSUNNY   90  69  50 S12       30.03F
TAPPAHANNOCK*  SUNNY     91  65  41 S9        30.02F
CHARLOTTSVILLE MOSUNNY   88  71  57 SW12      30.01F
ORANGE*        MOSUNNY   88  70  55 S8        30.01F
LOUISA*        SUNNY     90  72  55 SW9       30.01F HX  96
FARMVILLE*     MOSUNNY   90  70  51 SW8G17    30.01F HX  95
SOUTH HILL*    MOSUNNY   90  72  55 S8        30.11F HX  96
ROANOKE RAPIDS PTCLDY    88  70  55 SW12      30.06F
RALEIGH        MOSUNNY   89  69  51 SW7G20    30.07F
$$

VAZ088>098-312200-
SOUTHEAST VIRGINIA

CITY           SKY/WX    TMP DP  RH WIND       PRES   REMARKS
NORFOLK        MOSUNNY   91  66  43 SW16      30.05F
VIRGINIA BEACH MOSUNNY   88  70  55 SW13      30.05F
NORFOLK NAVAL  PTSUNNY   90  70  51 S12G20    30.07F HX  95
WEST POINT*    SUNNY     93  67  41 S8        30.04F HX  96
NEWPORT NEWS   MOSUNNY   93  71  48 S12       30.05F HX 100
LANGLEY AFB    PTSUNNY   90  71  54 SW9G18    30.04F HX  96
FORT EUSTIS    SUNNY     89  68  49 SW9       30.03F
WILLIAMSBURG*  SUNNY     93  72  49 S8        30.05F HX 100
FRANKLIN*      MOSUNNY   90  70  51 SW9       30.06F HX  95
WAKEFIELD      MOSUNNY   89  70  53 S7        30.05F
$$

VAZ020-022-025-037-045-312200-
WESTERN AND SOUTHWEST VIRGINIA

CITY           SKY/WX    TMP DP  RH WIND       PRES   REMARKS
STAUNTON*      MOSUNNY   88  65  47 SW13      30.06S
HOT SPRINGS VA CLOUDY    71  61  71 W16       30.23S
LYNCHBURG      MOSUNNY   86  71  60 S10       30.07F
DANVILLE       SUNNY     90  69  50 SW8       30.05F
MARTINSVILLE   MOSUNNY   91  71  51 SW7       30.09F HX  96
ROANOKE        CLOUDY    86  66  51 W8        30.09S
BLACKSBURG     CLOUDY    82  72  69 W6        30.15F
DUBLIN*        CLOUDY    82  68  61 W8        30.15F
MARION*        CLOUDY   N/A N/A N/A W10       30.20S
HILLSVILLE*    CLOUDY    78  67  69 W5        30.18F
RICHLANDS*     CLOUDY    78  68  70 W8        30.18F
WISE*          CLOUDY    75  64  69 S12       30.18F
ABINGDON*      CLOUDY    81  68  65 W8        30.16S
$$

MDZ021>025-VAZ099-100-312200-
SOUTHERN MARYLAND AND THE DELMARVA PENINSULA

CITY           SKY/WX    TMP DP  RH WIND       PRES   REMARKS
PATUXENT RIVER SUNNY     90  70  51 S13G18    30.00F HX  95
BAY BRIDGE APT   N/A     88  70  55 S10G20    29.99S
LEONARDTOWN    SUNNY     90  68  48 S7        30.02F
DOVER          SUNNY     91  74  57 S15       29.98F HX 100
GEORGETOWN     MOSUNNY   90  69  50 S18G25    30.02F
EASTON         MOSUNNY   91  73  55 S15G21    30.04F HX 100
CAMBRIDGE      MOSUNNY   90  70  51 S12G20    30.01F HX  95
SALISBURY      MOSUNNY   91  67  44 S16       30.03F
OCEAN CITY     SUNNY     81  74  79 S10G20    30.05F
WALLOPS ISLAND SUNNY     83  73  72 SW20G26   30.06F
ACCOMACK*      NOT AVBL
$$

NCZ012>017-030>032-312200-
EASTERN NORTH CAROLINA

CITY           SKY/WX    TMP DP  RH WIND       PRES   REMARKS
ELIZABETH CITY SUNNY     88  72  58 SW10      30.08F
AHOSKIE*       MOSUNNY   86  72  62 S3        30.07F
EDENTON*       SUNNY     89  70  54 S8        30.07F
CURRITUCK*     PTSUNNY   89  69  51 S6        30.08F
KILL DEVIL HLS SUNNY     86  71  59 S9        30.09S
MANTEO         SUNNY     84  74  70 S14       30.10S
CAPE HATTERAS  MOSUNNY   84  75  74 S10       30.11F
GOLDSBORO      SUNNY     92  75  57 VRB6      30.04F HX 103
WASHINGTON     SUNNY     89  67  48 SW7       30.08F
GREENVILLE     PTSUNNY   90  72  55 SW8       30.08F HX  96
NEW BERN       MOSUNNY   89  69  51 SW9       30.10F
WILMINGTON     SUNNY     87  74  64 S9        30.10S HX  95
$$

VAZ048-312200-
ELSEWHERE

CITY           SKY/WX    TMP DP  RH WIND       PRES   REMARKS
HARRISBURG PA  CLOUDY    85  70  60 SW5       29.97F
BALTIMORE      PTSUNNY   91  68  46 SW13      29.98S HX  95
ANNAPOLIS      MOSUNNY   85  74  69 S12       29.98F
ANDREWS AFB    PTSUNNY   91  70  51 SW9G20    29.99F HX  96
WILMINGTON DE  MOSUNNY   87  69  54 CALM      29.99F
PHILADELPHIA   CLOUDY    87  72  60 SW12      29.98F
WILDWOOD NJ*   SUNNY     84  72  65 S16       30.03F
ATLANTIC CITY  MOSUNNY   84  72  67 S14       30.01F
HENDERSON NC   MOSUNNY   88  67  49 S9        30.07F
GREENSBORO     PTSUNNY   91  69  48 W9        30.07F HX  96
ROCKY MOUNT    SUNNY     91  69  48 SW7       30.07F HX  96
FAYETTEVILLE   PTSUNNY   93  68  43 S8        30.05F HX  97
CHARLOTTE      MOSUNNY   91  70  49 W7        30.08F HX  96
$$

VAZ100-312200-
MARINE

STATION/POSITION TIME  TEMP    WIND        PRES    WAVE   SWELL
                       AIR SEA DIR/SP/G            HT/PER HT/PER
                 (UTC) (F)     (DEG/KT/KT) (MB)    (FT/S) (FT/S)
44066 TX TWR #4  2100   75 74  200/ 16/ 19 1017.4R   4/ 5   2/ 8
CAPE MAY NJ      2100   80 79  170/ 12/ 20 1016.0F
LEWES DE         2100   89 76  230/  8/ 13 1016.3S
15NM E FENWICK I 2100   77 74              1017.4F   3/ 4
OCEAN-CITY-INLET 2100   78 77  210/ 17/ 20 1017.3F
WACHAPREAGUE VA  2100   82 85  200/ 12/ 15 1017.9F
THOMAS POINT MD  2100   82 78  170/ 17/ 18 1016.2F
GOOSES REEF MD   2100   81     170/ 16/ 19 1016.2F
COVE POINT MD    2100   80     180/ 18/ 19 1015.8F
SOLOMONS ISLAND  2100      81                N/A
BISHOPS HEAD MD  2100   84 82  180/ 16/ 23 1016.2F
PINEY POINT MD   2100          220/ 12/ 15   N/A
POTOMAC MD       2100   83     170/ 12/ 16 1016.1S
CAMBRIDGE MD     2100   88 78  190/  6/ 13 1015.9F
LEWISETTA VA     2100   88 80  220/ 10/ 12 1015.9F
RAPPAHANNOCK LGT 2100          170/  9/  9 1018.1F
STINGRAY PT      2100   81     160/ 16/ 17   N/A
YORK RVR RNG VA  2100   85     220/ 10/ 13 1016.9F
YORKTOWN VA      2100   88 81  220/ 10/ 12 1017.0F
JAMESTOWN VA     2100   87     200/ 12/ 16   N/A
DOMINION TERM VA 2100   85     220/  8/  9 1017.9F
KIPTOPEKE VA     2100      82  180/ 17/ 22   N/A
CHES BAY BRIDGE  2100   86 78  180/ 12/ 13 1017.3S
CAPE HENRY VA    2100   82     150/ 14/ 20 1016.7F
CHESAPEAKE LGHT  2000   79     160/ 21/ 23 1018.9F
WILLOUBY STN VA  2100   87     230/ 11/ 13 1016.5F
S CRANEY ISL VA  2100          190/ 10/ 13 1017.5F
CAPE HENRY BUOY  2100      80                N/A     3/10
1ST LANDING BUOY 2100   86     200/ 12/ 16 1017.5F
CAPE CHARLES BUO 2100      78                N/A     3/10   2/10
OFFSHORE WE BUOY 2100      77                N/A     3/10   2/10
64NM E OF VA BCH 2100   79 79  180/ 12/ 14 1019.0F   3/ 9   2/ 9
DUCK PIER NC     2100   83 78  150/ 15/ 16 1018.0F
44056 DUCK FRF   2100                        N/A     3/ 9
OREGON INLET NC  2100   82 81  180/ 11/ 13 1019.4S
HATTERAS NC      2100   85 83  190/  5/  9 1020.1S
DIAMOND SHLS NC  2100   81     190/ 14/ 17 1019.8F   3/ 9   2/ 9
CAPE LOOKOUT NC  2000   82     170/  8/  9 1019.6F
$$



USA.gov is the U.S. government's official web portal to all federal, state and local government web resources and services.